Wind_Speed
0 1 2 0 1 1 1 3 1 2 2 0 3 1 4 5 3 4 7 7 2 2 1 4 5 5 6 8 10 8 5 2 4 4 3 3 13 24 24 24 32 31 29 28 25 23 22 24 24 23 22 20 19 18 21 23 24 24 24 24 24 24 24 24 23 23 22 22 22 23 23 24 24 24 25 27 26 24 23 22 21 21 21 21 20 20 19 19 19 17 17 16 16 16 17 16 16
2 2 2 1 2 2 1 3 2 3 3 2 3 4 4 3 2 5 8 7 2 3 2 7 10 10 11 10 8 6 6 4 1 3 1 8 16 22 25 28 34 32 30 28 26 25 22 24 24 24 22 20 19 18 21 22 24 23 23 23 23 23 23 23 23 22 22 22 22 23 24 24 24 24 25 27 26 25 23 22 21 21 20 20 20 20 19 19 18 16 16 16 15 15 16 15 15
3 3 1 2 2 3 1 3 2 1 3 2 5 4 3 2 5 8 10 8 6 7 3 6 8 5 6 6 4 5 2 1 3 5 3 14 15 20 28 30 34 31 30 29 27 25 24 25 25 25 23 22 20 19 21 22 23 23 23 22 22 22 22 23 22 22 21 21 22 23 24 24 24 24 25 27 26 24 23 22 21 20 19 19 19 19 19 18 17 15 15 15 15 14 15 15 15
3 3 1 2 2 3 3 2 2 4 3 4 4 5 3 4 8 8 9 4 5 4 2 4 5 2 4 9 5 6 4 2 5 4 4 15 13 21 31 29 31 28 28 29 27 26 24 25 26 25 24 23 21 20 21 22 23 23 23 21 21 21 22 22 21 21 20 21 21 23 24 23 23 23 24 27 26 24 23 22 21 20 19 18 18 18 19 18 16 15 15 14 14 15 15 15 15
3 4 1 2 2 1 2 1 2 4 4 4 2 6 5 7 7 8 9 2 4 4 3 4 3 2 4 7 3 3 5 3 6 8 4 12 13 24 31 28 30 26 27 28 27 26 24 25 26 25 24 23 21 20 20 21 22 22 22 21 20 20 21 21 21 21 20 20 20 22 23 22 22 22 24 26 26 24 23 22 20 19 18 18 17 18 18 18 16 16 15 15 15 16 15 14 13
3 4 2 3 2 1 2 1 2 2 5 5 3 7 7 7 6 7 11 8 3 3 3 3 5 3 3 3 1 2 4 3 5 9 7 11 15 27 30 28 29 25 25 26 27 26 24 25 25 25 24 23 21 19 20 20 21 21 21 20 20 20 20 20 20 20 20 20 19 21 23 22 21 20 24 24 23 23 22 21 20 18 17 17 17 19 19 19 18 17 16 16 16 15 14 13 12
4 3 2 2 1 1 3 2 3 3 5 6 5 8 10 9 5 5 10 8 1 3 5 3 7 8 2 0 1 1 5 4 1 5 9 14 21 28 28 27 27 23 23 24 26 25 23 23 24 24 23 22 20 19 19 19 21 20 20 20 19 19 19 19 19 20 19 19 19 21 23 22 20 21 22 21 20 22 22 21 20 18 16 15 17 19 19 20 18 17 16 16 15 14 13 12 13
5 2 1 3 1 2 3 2 3 4 4 5 5 8 11 11 6 5 8 5 2 2 4 4 5 6 1 0 2 5 5 3 2 7 14 18 24 27 25 26 24 22 22 23 24 24 22 22 24 23 23 21 19 19 18 19 20 20 19 18 18 18 18 18 19 19 18 18 19 20 21 20 19 21 20 19 20 22 22 20 19 17 16 15 16 18 19 20 19 17 16 15 14 13 12 13 13
3 2 1 2 2 1 1 2 4 4 5 6 6 9 11 12 8 5 8 6 1 2 3 3 2 5 1 3 2 6 6 4 5 13 18 21 25 27 25 25 25 23 22 22 23 23 21 22 23 22 22 21 19 18 18 19 20 19 19 17 18 18 18 18 18 19 18 18 19 19 20 19 19 20 18 19 20 21 20 19 18 16 15 15 15 17 19 20 19 18 16 15 14 13 13 13 13
2 2 2 1 2 0 3 3 4 3 6 6 6 10 11 11 8 6 7 4 3 4 3 2 5 6 6 4 2 4 5 5 12 18 19 22 24 25 25 24 24 23 22 22 23 23 22 21 22 23 22 20 19 18 18 19 19 19 18 17 17 17 17 17 17 18 18 18 18 19 19 18 18 19 18 19 20 19 18 18 17 16 15 15 15 16 19 20 20 18 16 15 14 14 13 13 13
2 2 2 2 3 2 3 3 4 4 6 6 7 12 11 10 7 6 4 3 2 6 5 5 6 6 7 4 2 2 1 7 13 18 21 22 22 23 23 23 23 22 22 23 23 23 22 21 21 22 22 21 20 18 18 18 18 19 18 17 16 16 15 16 17 17 18 18 18 18 17 17 17 18 17 18 18 17 17 17 15 15 15 15 15 15 17 21 21 19 17 16 15 14 13 11 11
2 1 4 3 2 3 4 3 5 6 8 6 7 10 6 7 5 4 4 5 4 7 4 2 6 6 6 3 2 1 3 6 10 17 21 21 19 20 21 22 23 22 22 23 23 22 22 21 21 21 22 21 20 19 18 17 17 18 18 17 16 15 15 16 17 16 17 17 17 16 16 16 17 17 17 17 17 16 16 15 14 15 15 16 15 15 17 20 22 20 17 16 15 14 12 10 9
2 2 4 2 3 3 2 2 4 5 7 4 6 7 1 3 4 6 5 6 5 5 3 5 11 6 4 2 1 1 3 6 10 16 20 20 17 18 20 21 22 22 21 22 22 23 22 22 21 21 21 20 20 19 18 16 16 17 18 17 15 14 15 16 16 16 16 16 16 15 15 15 16 16 16 16 16 15 15 14 13 14 15 16 16 15 17 20 22 20 18 17 15 13 12 9 9
3 2 4 2 1 2 2 2 3 2 5 6 4 5 1 1 2 4 7 8 4 1 3 7 10 6 4 2 1 3 5 9 14 16 19 18 16 17 19 20 22 22 21 21 22 23 23 22 22 21 20 20 20 18 17 16 16 18 18 17 15 14 15 16 16 15 15 15 16 15 15 15 15 15 15 15 14 14 14 13 13 14 15 16 16 16 17 20 22 21 19 17 15 13 12 10 10
4 1 4 2 1 0 2 3 2 2 4 6 4 5 2 2 2 4 7 7 4 1 5 4 4 3 4 7 4 8 10 15 17 17 19 17 16 18 18 19 20 20 20 21 22 23 23 22 21 20 20 20 19 18 17 16 17 18 18 16 15 15 16 16 16 15 15 15 14 14 15 14 14 14 14 13 13 13 13 12 12 13 14 16 16 16 17 20 21 20 19 17 14 13 13 12 12
3 2 3 1 1 2 3 3 1 2 5 7 5 5 3 3 4 4 1 5 5 2 3 1 3 2 8 8 4 11 17 19 19 19 20 18 17 17 17 18 19 19 20 21 22 22 22 22 21 20 20 19 19 18 17 17 18 18 18 16 15 16 16 15 16 16 15 14 13 13 13 13 14 13 13 12 12 12 11 11 12 12 13 15 16 17 18 20 21 20 19 16 14 13 14 14 13
2 3 2 0 2 3 3 4 2 1 6 7 6 6 4 4 5 3 4 5 8 3 4 2 5 3 6 3 6 19 22 21 21 20 19 18 17 17 16 17 18 19 20 21 22 21 21 21 20 20 20 19 19 18 17 17 18 18 17 16 15 15 14 15 16 16 15 14 13 14 14 14 14 14 13 11 11 10 9 9 10 11 12 14 15 16 17 19 20 19 19 16 14 13 13 13 12
2 2 2 2 3 4 4 6 4 1 4 7 7 5 6 4 4 2 5 7 5 4 5 4 6 7 6 9 19 25 23 22 21 19 17 14 14 14 13 16 19 19 20 21 21 21 21 20 20 21 20 20 20 18 18 18 18 18 17 16 16 14 13 14 15 15 15 14 15 15 15 15 13 13 13 12 11 10 8 8 9 10 12 13 14 15 16 17 18 19 19 16 14 13 12 11 10
3 3 2 4 4 5 5 5 5 1 4 7 8 6 4 3 2 2 3 1 2 5 4 4 7 9 9 12 21 23 22 22 20 19 15 12 12 13 14 17 19 19 19 20 21 21 21 21 21 21 21 21 21 19 18 18 18 18 17 16 16 14 14 15 16 16 15 15 16 15 16 15 13 12 12 12 11 10 9 7 8 9 11 12 13 14 15 16 17 18 18 16 15 12 11 10 9
3 2 2 5 5 5 6 7 8 7 6 6 7 6 5 1 3 3 5 3 2 2 2 2 4 7 8 9 15 19 19 18 17 18 15 14 16 17 16 14 15 17 18 20 21 21 20 21 21 21 21 21 21 20 19 19 19 18 17 17 16 15 15 17 17 16 16 16 16 15 15 14 13 11 10 11 10 10 9 8 8 8 11 12 13 14 15 15 15 17 18 17 15 11 10 10 9
1 3 4 5 4 4 8 8 9 9 5 3 4 4 5 2 3 4 7 6 2 4 6 5 9 12 11 9 11 15 15 14 15 15 15 17 18 16 12 10 12 16 19 20 20 20 20 21 21 21 21 21 22 20 20 20 20 19 18 17 17 16 17 18 18 17 17 16 15 15 14 13 12 10 10 10 10 11 11 10 9 9 10 13 14 14 14 15 15 16 17 17 15 11 10 10 8
1 3 5 5 3 5 7 5 6 7 5 4 3 1 2 2 4 5 7 6 4 6 7 7 12 16 14 13 12 12 12 11 12 14 16 18 16 14 12 12 13 16 18 19 20 19 20 22 21 22 22 23 22 21 21 21 20 20 20 19 18 18 18 18 18 18 17 15 15 14 13 12 11 10 10 11 11 12 12 12 11 10 10 12 14 14 14 15 15 15 16 17 15 12 11 9 7
2 5 3 5 5 6 6 2 5 7 4 6 4 2 1 3 2 5 7 5 7 6 6 7 11 15 15 15 13 12 12 11 12 16 18 18 16 16 17 16 17 19 20 20 21 20 21 22 22 23 24 24 22 21 21 20 20 21 22 19 19 20 19 18 19 18 16 15 15 14 14 13 12 11 11 11 11 12 13 13 12 11 10 11 13 15 15 15 15 15 15 15 15 12 10 8 6
3 4 5 6 6 8 9 5 7 7 5 8 4 1 1 2 3 3 4 5 6 2 6 9 10 11 13 13 12 13 13 12 14 17 18 17 17 18 18 18 18 20 20 20 21 22 22 22 22 23 24 24 22 21 20 19 19 20 21 18 18 19 19 18 19 18 17 16 16 15 15 14 14 14 13 12 11 11 12 13 12 11 11 12 13 14 15 15 15 15 15 15 14 11 9 7 4
4 5 5 5 6 9 10 8 9 9 6 7 4 2 5 4 2 2 3 3 2 6 9 10 10 10 10 11 12 12 12 13 13 15 16 15 15 16 16 15 16 18 19 21 21 22 23 22 22 22 23 23 22 21 19 19 19 19 20 18 17 17 17 18 18 18 17 17 17 16 16 16 16 15 14 13 12 11 11 11 11 9 10 13 14 14 14 14 15 14 14 14 13 10 7 6 3
5 7 6 5 7 9 8 6 8 9 6 3 2 5 8 5 1 3 4 3 6 8 10 10 11 11 9 10 11 12 13 14 14 15 17 16 14 14 15 14 16 19 20 22 22 23 23 22 21 21 21 21 20 19 17 18 18 18 18 17 16 15 16 17 18 18 18 18 18 17 17 17 16 15 15 14 13 12 11 11 10 9 10 12 14 14 14 13 14 14 14 13 11 8 7 5 3
5 6 5 7 9 9 6 6 8 6 4 5 6 7 8 4 1 3 3 4 8 10 9 9 10 10 10 10 10 11 12 14 17 17 16 15 14 15 16 16 17 18 21 22 23 23 22 22 21 20 19 19 19 18 18 18 17 16 16 16 16 16 17 18 18 18 18 18 18 18 17 17 16 15 15 14 14 13 12 12 11 10 10 11 12 13 13 13 13 13 13 12 10 8 7 7 5
3 2 4 8 8 7 5 6 6 3 3 7 8 6 5 3 1 6 4 7 10 12 10 9 10 9 10 11 10 9 9 13 18 17 15 16 17 18 19 19 19 18 21 23 23 23 22 22 22 21 21 20 20 21 20 19 17 15 15 16 17 18 18 18 19 19 19 19 18 18 18 17 16 15 14 15 14 13 12 12 12 11 10 10 11 12 12 13 14 14 13 12 9 9 8 7 6
2 0 3 8 6 5 6 5 5 5 4 6 8 1 5 3 5 7 8 10 9 12 11 10 10 8 8 10 9 8 8 12 16 16 18 22 20 18 19 21 22 19 21 23 23 23 22 23 24 23 23 23 23 23 20 19 18 17 19 19 18 19 19 19 20 20 19 19 18 18 18 18 17 16 15 15 15 13 13 13 13 12 11 11 11 11 11 13 14 13 12 11 10 9 8 8 7
2 1 2 5 6 5 7 3 3 6 4 6 7 2 6 8 8 5 6 10 9 9 10 9 8 7 7 8 8 8 9 11 14 18 22 23 20 17 19 22 23 21 21 23 23 23 24 24 25 23 23 24 24 22 19 19 19 20 21 21 20 19 20 21 21 20 19 18 18 18 19 19 17 17 17 15 15 14 14 14 13 13 12 10 10 12 12 13 13 12 11 11 10 10 9 9 8
1 1 1 1 1 4 8 3 4 5 3 5 7 3 7 10 8 5 7 10 12 10 9 9 8 7 7 8 8 8 9 12 15 19 20 20 17 14 18 21 24 23 22 23 25 25 26 26 25 24 24 25 24 23 22 21 22 23 23 23 22 21 21 22 21 20 19 19 20 20 19 19 18 18 18 16 16 15 14 14 13 13 12 10 9 12 15 15 13 11 11 11 11 11 10 10 9
2 1 3 3 2 4 8 4 4 5 2 2 5 3 6 9 6 7 10 10 13 12 10 10 9 9 8 7 8 8 7 10 14 16 17 18 16 14 17 21 23 24 23 24 25 25 26 25 25 25 25 26 25 24 24 23 23 24 24 23 21 22 23 22 22 22 22 22 22 22 20 19 19 19 19 17 16 15 14 14 13 13 12 11 10 14 18 16 13 12 12 12 12 12 11 11 10
3 1 3 3 1 2 5 4 3 5 2 1 3 3 4 6 2 5 9 11 12 11 11 11 10 9 9 7 7 7 7 8 11 15 18 18 18 18 20 21 23 24 23 24 25 26 26 25 25 26 26 26 23 23 23 23 24 23 24 23 21 23 24 23 25 25 25 24 23 23 21 21 22 22 21 18 16 15 15 14 13 13 13 14 14 16 18 16 15 14 14 12 12 12 12 13 12
3 2 0 3 1 1 2 4 6 1 2 2 3 4 7 8 1 5 6 10 11 11 12 11 10 8 7 6 7 7 7 8 9 14 18 19 20 20 21 22 23 23 23 24 25 25 25 24 24 24 24 22 22 24 25 25 25 23 23 23 22 23 25 26 27 28 28 26 24 23 22 23 24 24 23 20 17 17 16 15 13 13 16 17 17 17 16 16 15 14 15 14 13 13 14 14 14
2 1 1 2 2 0 1 3 4 3 1 4 3 4 10 12 4 5 6 10 12 13 11 9 8 8 7 7 7 7 7 8 9 16 19 19 20 21 22 22 23 24 24 24 24 25 24 23 23 21 21 22 23 25 27 26 25 23 23 22 21 23 26 28 30 30 29 26 24 24 24 24 25 26 25 23 20 19 18 16 15 15 19 20 18 16 16 17 15 14 15 16 14 14 15 16 15
6 3 3 1 4 3 3 5 6 3 4 5 5 6 10 12 9 2 2 5 10 8 5 6 6 6 7 7 7 7 8 7 9 17 20 17 19 21 22 22 22 23 25 25 24 24 23 23 22 21 21 22 23 25 27 27 25 24 23 23 24 26 29 31 32 31 29 27 26 25 25 25 26 26 25 24 22 21 19 18 16 17 19 20 18 16 17 16 15 15 15 16 16 15 16 15 14
4 1 1 2 3 4 5 4 6 3 3 8 6 8 10 10 9 5 4 1 7 6 4 5 6 7 8 7 7 7 8 6 8 15 18 15 16 18 20 21 21 22 23 24 24 23 23 23 22 22 22 22 23 26 28 29 28 27 26 27 30 31 31 31 31 31 29 28 26 25 25 25 26 25 24 24 23 22 21 20 19 19 20 19 18 17 17 14 13 14 15 17 17 17 17 15 14
2 1 1 4 2 4 7 4 6 2 4 7 3 5 9 9 7 6 3 3 7 9 10 9 9 9 7 6 8 7 6 5 6 8 9 8 11 15 18 20 22 23 23 23 22 23 23 23 23 23 23 24 25 27 29 30 31 31 29 31 33 33 32 31 31 31 30 28 26 24 24 24 25 24 24 24 23 21 22 22 21 21 20 19 19 18 17 15 14 15 16 18 17 17 18 17 17
3 2 1 2 3 4 7 4 5 1 4 6 2 6 7 6 5 6 5 2 6 7 10 11 12 11 7 7 7 6 6 5 5 5 4 8 12 16 19 20 23 24 22 21 21 23 23 23 23 23 23 25 25 26 28 31 31 30 28 27 28 27 26 27 27 27 26 25 24 23 23 24 23 23 23 23 21 20 21 22 23 22 20 19 19 19 18 17 16 16 17 18 17 17 16 19 19
3 3 3 2 4 1 3 5 6 4 1 3 3 4 4 5 5 6 6 6 6 4 4 3 4 6 6 3 2 4 4 4 5 5 7 10 14 16 18 20 22 20 18 19 21 23 23 23 23 23 23 23 23 24 26 28 27 26 24 22 22 21 19 19 19 20 21 21 21 21 22 23 23 22 22 21 21 19 19 21 22 22 20 18 19 20 20 19 17 17 17 18 19 19 17 19 18
2 4 5 3 4 4 5 4 6 6 4 2 6 4 5 4 6 5 6 7 9 9 7 6 6 4 4 5 7 7 6 6 6 7 8 9 11 15 17 18 18 16 16 19 24 25 25 24 24 23 23 22 22 21 21 21 22 23 21 18 18 17 14 14 14 14 17 19 20 21 21 22 21 20 20 20 21 20 19 21 21 21 19 17 18 20 20 18 17 17 18 18 20 21 20 21 18
3 4 8 7 6 6 4 4 5 5 5 4 6 4 4 4 6 5 6 7 10 10 9 9 8 7 5 5 6 7 7 6 6 7 8 8 9 12 14 14 15 14 15 20 25 25 24 25 25 24 23 22 21 21 19 16 17 21 21 18 17 16 14 14 16 16 18 19 21 21 21 20 20 19 19 20 21 21 20 20 21 22 21 19 19 19 19 18 17 17 17 18 20 21 20 22 20
2 5 8 9 7 5 3 2 2 2 1 3 5 5 2 5 6 6 6 6 8 10 11 11 9 7 5 4 5 6 8 7 7 7 7 9 10 11 11 13 16 15 15 20 23 23 23 23 23 23 22 20 20 23 23 18 15 18 20 20 20 19 18 18 19 20 20 21 20 20 19 19 19 18 18 19 20 20 20 20 21 20 20 20 20 19 19 18 17 16 17 18 19 20 20 23 23
3 6 7 8 7 6 5 3 3 2 3 4 4 4 3 3 4 5 6 4 8 12 12 11 10 9 9 7 5 4 5 6 7 7 7 9 11 12 14 18 20 16 16 22 24 23 24 24 24 23 20 18 19 22 27 25 21 20 21 21 21 21 21 20 20 20 20 21 20 19 18 18 18 17 18 18 19 19 19 20 19 19 20 21 20 20 19 18 17 17 18 19 19 20 19 21 23
7 7 6 7 7 7 6 5 3 0 1 3 6 2 4 2 5 5 6 4 8 12 11 11 11 11 10 10 9 8 6 5 4 5 5 7 11 15 19 21 19 16 18 23 24 24 26 25 25 24 22 21 21 23 27 30 28 26 25 23 22 20 19 19 19 19 20 21 20 19 18 17 17 17 17 18 18 18 18 19 18 18 20 21 20 20 20 18 18 19 18 19 21 21 20 20 21
8 5 5 4 3 4 4 5 4 3 4 2 7 1 3 3 5 5 6 4 6 7 7 8 9 10 11 10 10 10 8 7 6 5 4 4 10 15 19 19 15 14 14 15 19 23 25 24 22 23 24 25 25 26 28 29 29 28 28 26 25 21 19 18 18 19 20 20 19 19 19 18 17 17 17 17 18 18 18 18 18 18 19 20 20 19 19 19 19 19 18 19 21 22 22 20 19
3 3 4 4 4 4 4 3 4 4 1 5 7 1 5 1 4 3 3 3 3 4 5 7 8 10 10 10 10 9 8 7 6 6 6 4 4 10 15 15 8 6 5 4 8 14 18 20 18 19 25 28 28 27 28 27 26 27 28 28 27 23 20 18 19 20 20 20 19 19 19 19 18 18 17 17 17 17 18 19 18 18 18 20 20 19 20 20 19 19 19 19 20 21 21 19 18
4 3 4 3 1 4 4 4 4 4 2 6 6 2 7 2 3 2 3 3 5 6 6 7 8 10 9 9 10 9 8 7 7 6 5 4 2 2 6 6 7 15 12 7 4 6 9 13 15 17 22 25 23 23 25 27 25 25 26 25 24 22 20 19 19 20 21 21 21 20 19 19 18 19 19 18 17 17 18 19 19 19 19 19 19 19 20 19 17 18 19 19 20 20 19 18 17
4 4 5 4 1 2 1 3 1 3 3 4 4 2 4 1 1 2 3 4 7 7 6 6 7 9 9 10 10 9 9 8 8 7 6 5 5 6 7 9 12 14 10 9 10 11 9 10 14 18 21 21 18 17 19 22 23 24 23 22 19 17 15 16 18 20 21 21 21 20 20 20 20 20 20 19 19 19 20 19 19 20 19 19 19 19 19 18 17 17 19 19 19 19 18 17 17
6 5 5 5 3 3 1 2 0 2 3 4 3 1 2 1 1 1 2 4 5 6 7 6 7 9 10 10 9 7 8 8 7 7 6 6 6 8 11 12 12 11 11 10 10 11 10 9 12 17 22 22 19 15 13 15 17 16 13 11 12 13 16 19 19 18 19 20 20 20 20 20 19 20 20 21 21 20 20 20 19 19 19 18 18 18 18 17 17 17 18 18 17 17 15 15 15
4 4 6 5 5 4 3 3 3 3 2 2 2 1 2 2 1 1 3 3 3 6 7 6 8 9 8 8 8 8 8 7 6 7 7 7 8 10 10 12 13 12 12 9 6 9 11 10 11 14 17 18 17 14 14 13 9 8 6 6 10 18 23 23 20 18 18 20 22 23 21 19 19 20 20 20 21 20 19 19 19 19 19 19 18 17 17 17 17 18 18 18 16 14 14 14 14
2 2 6 3 5 5 3 3 5 4 2 2 2 1 0 1 3 3 3 3 4 6 7 7 8 8 8 9 9 9 8 8 7 7 8 9 11 13 13 13 13 12 12 9 7 11 14 14 13 13 13 13 13 11 10 8 3 5 13 17 18 19 19 19 19 20 19 19 20 22 22 20 21 21 20 19 19 18 19 20 20 19 18 18 17 16 16 17 18 17 17 17 15 14 14 13 13
1 2 4 3 4 7 5 2 1 3 4 0 0 3 1 1 3 2 4 6 6 7 7 7 8 8 9 8 8 8 8 8 8 8 8 10 12 15 16 16 16 14 13 12 10 11 14 15 15 14 14 13 12 12 9 9 7 9 16 21 20 18 18 20 22 22 20 18 18 20 20 20 22 21 20 20 18 18 18 19 19 19 18 17 17 17 17 18 17 16 16 16 15 14 14 13 13
5 3 5 2 3 5 4 2 2 4 4 2 1 3 3 2 2 3 5 7 7 7 6 7 7 8 8 7 7 7 7 7 8 8 9 10 13 16 17 18 19 19 17 16 12 10 11 12 13 14 16 15 13 14 15 13 13 15 17 21 21 19 21 24 24 22 21 19 19 21 21 21 22 22 21 21 19 19 18 18 19 18 18 18 17 17 18 17 16 16 15 15 15 13 13 13 13
4 5 4 4 3 1 1 2 2 2 3 1 3 1 3 3 2 4 8 8 8 6 6 6 7 7 6 7 8 9 9 8 8 9 8 9 13 15 17 19 20 20 19 17 14 12 12 11 11 12 15 14 12 14 17 14 14 17 18 20 20 19 23 26 24 22 21 20 21 22 22 21 22 22 21 22 21 19 20 18 19 18 19 19 18 17 17 17 16 16 16 14 13 12 12 13 12
4 4 2 2 3 4 2 2 3 4 3 1 2 1 2 3 2 4 8 9 8 7 5 5 6 7 7 7 8 8 8 7 7 8 8 9 12 14 15 16 17 18 18 18 17 15 15 14 13 12 13 12 10 12 14 13 13 16 17 19 20 20 21 23 23 22 20 20 22 23 22 22 23 22 22 22 22 19 20 20 19 19 19 18 18 17 17 17 16 16 15 14 13 12 12 13 13
2 3 1 1 1 2 2 1 2 4 4 3 3 1 4 3 2 2 6 8 8 8 6 4 5 7 8 7 7 7 7 7 8 8 8 10 12 13 14 14 15 17 19 20 19 18 17 17 16 14 12 11 10 11 13 13 14 16 18 20 21 22 21 21 22 21 20 20 23 23 22 21 22 21 21 23 21 19 20 20 19 19 19 18 17 17 16 17 16 15 14 13 13 13 13 13 13
4 3 3 3 3 4 3 0 1 2 4 4 5 2 4 3 1 1 4 7 8 8 7 5 5 7 7 7 7 7 7 8 8 7 8 9 12 13 14 15 16 17 19 20 20 20 20 19 17 15 13 11 11 11 13 15 16 18 21 22 23 24 23 21 21 22 22 20 22 24 23 21 21 21 21 23 21 19 21 20 18 18 18 17 17 16 16 16 15 14 14 14 14 14 14 14 13
Wind_Direction
142 78 49 97 37 116 45 65 86 329 93 317 269 225 258 232 239 285 296 294 327 0 26 42 43 59 100 117 127 115 63 134 186 160 202 201 166 175 184 181 170 168 170 169 168 167 169 170 169 167 164 162 157 152 151 150 147 145 143 141 139 137 136 134 133 131 129 127 124 122 120 119 117 114 112 111 109 107 104 102 102 102 105 107 107 107 105 104 102 101 98 94 93 94 97 97 95
123 113 90 131 28 99 219 73 101 323 56 312 269 186 253 287 264 248 253 261 242 181 148 85 82 82 103 120 129 88 38 13 183 144 110 146 159 181 186 182 174 170 170 167 166 167 168 169 168 165 163 161 157 154 153 152 150 148 145 142 140 138 136 135 134 133 132 129 126 124 123 121 119 118 116 114 112 108 107 105 103 102 105 108 109 108 106 106 105 102 98 98 97 96 97 97 95
119 140 128 124 38 56 73 47 102 45 89 248 270 229 260 311 239 237 240 233 200 182 141 83 82 80 96 93 54 53 90 342 130 117 121 156 164 186 182 179 175 171 168 165 166 168 167 168 168 166 164 163 160 158 158 157 154 150 147 143 141 138 137 137 135 135 133 130 127 125 125 122 122 123 121 118 115 113 112 109 106 105 105 106 107 110 111 111 108 104 100 101 100 99 101 101 100
129 156 199 123 46 26 65 52 140 126 137 220 270 255 234 239 244 260 258 217 192 200 95 63 58 359 64 93 82 67 135 203 185 170 154 173 182 179 173 171 171 167 164 165 168 168 167 167 168 167 165 165 163 162 161 159 157 152 148 143 141 139 139 138 136 134 130 128 127 127 126 126 127 127 125 121 119 117 116 114 111 109 108 107 106 110 113 112 111 108 105 104 105 107 109 107 104
146 163 182 95 91 10 103 100 121 129 196 195 232 260 224 221 251 286 284 293 238 235 115 109 82 314 54 93 122 109 142 133 208 229 194 182 189 169 165 166 167 164 164 167 167 166 165 166 168 168 167 166 164 162 162 160 159 154 147 143 141 141 139 137 134 131 129 129 128 128 128 128 128 128 127 123 122 122 122 120 117 115 115 113 111 114 117 117 119 117 114 115 117 117 114 110 100
155 141 94 57 103 183 115 137 175 198 230 183 206 266 253 243 256 293 301 312 240 175 74 113 117 132 86 55 48 142 188 153 188 224 198 173 173 164 163 165 164 163 164 166 166 165 163 166 169 169 168 166 164 162 161 161 160 153 146 144 143 142 140 136 133 131 131 131 129 128 130 130 128 130 130 124 124 129 128 122 118 117 114 114 116 120 123 126 128 126 126 125 124 121 116 107 92
161 132 38 51 32 28 111 185 202 237 242 185 210 262 268 272 275 310 310 319 23 75 39 97 122 116 99 244 117 321 261 246 154 181 171 158 158 160 162 163 160 160 163 165 165 163 162 166 168 167 168 166 164 162 160 159 158 151 146 146 144 143 140 136 133 132 133 133 132 130 132 132 130 135 133 126 126 131 127 119 117 115 114 115 117 123 128 132 134 132 132 129 126 122 114 100 88
161 147 29 101 59 7 110 231 228 220 245 214 236 262 270 277 286 305 297 303 317 48 90 129 108 95 324 326 113 300 294 305 22 139 152 150 154 159 161 160 157 158 162 164 163 160 161 165 166 167 168 167 165 162 159 158 155 150 148 147 145 144 141 138 135 134 135 137 135 133 134 133 135 139 134 129 128 127 123 118 118 118 120 118 116 123 131 136 138 136 135 132 127 120 109 98 90
125 96 94 111 145 10 58 279 258 231 257 257 260 266 268 276 284 281 283 291 220 96 108 187 78 95 146 61 83 286 328 30 107 133 145 151 156 159 162 162 158 158 161 163 161 159 161 166 168 169 169 167 165 162 160 156 154 154 152 149 147 146 143 141 139 137 138 139 138 136 136 136 139 139 134 134 130 125 122 121 123 124 124 119 116 122 132 139 141 141 138 133 126 117 108 101 95
46 39 141 111 123 159 302 267 259 255 254 253 253 259 262 269 275 264 270 268 175 104 74 83 68 111 131 106 137 281 344 86 127 132 146 153 155 161 163 163 160 157 160 161 159 159 162 167 170 171 171 168 167 165 162 158 156 159 157 152 150 150 148 146 144 143 142 141 142 141 139 139 141 139 135 136 131 127 126 127 129 128 124 120 118 121 132 140 144 145 140 134 126 118 112 104 100
32 334 114 88 94 176 247 250 268 267 268 285 277 261 254 249 257 265 240 199 174 115 124 81 78 122 110 120 207 303 78 121 129 138 151 153 154 164 165 162 162 158 157 157 158 160 161 166 172 173 174 173 172 169 166 162 160 163 161 156 155 155 153 151 149 148 146 145 147 145 144 142 141 140 138 137 133 132 131 131 132 129 124 119 119 120 130 139 145 147 142 135 128 122 114 105 104
112 286 76 102 147 188 210 239 269 274 285 297 281 271 244 216 203 217 185 153 141 129 174 140 136 144 95 139 235 339 158 142 142 150 155 154 155 164 165 162 161 159 155 156 158 159 161 168 174 175 178 177 174 173 170 166 165 166 164 160 160 160 158 156 153 152 151 151 151 148 147 145 145 144 142 141 137 136 137 137 135 128 123 121 120 122 130 139 145 147 142 135 130 124 111 101 102
141 170 92 129 191 172 191 234 273 298 299 271 252 275 196 168 182 185 150 114 129 158 223 151 148 140 97 157 326 322 210 186 167 159 158 155 159 165 164 162 161 158 155 157 159 159 164 169 175 177 177 176 173 173 172 168 166 167 166 164 163 163 162 160 158 156 155 154 154 151 147 146 148 148 147 144 139 141 143 142 137 127 124 124 122 124 131 139 145 146 141 137 133 122 104 91 93
170 164 119 173 212 154 194 238 286 298 281 265 246 281 303 109 200 163 109 82 35 210 141 122 139 112 103 145 27 239 213 191 175 162 160 157 162 164 160 162 161 158 155 160 161 162 166 170 176 176 175 174 171 171 173 170 167 168 169 169 166 167 168 165 163 161 158 155 154 152 148 145 147 149 150 146 143 147 148 146 139 129 127 126 125 126 133 140 144 145 141 140 133 117 99 85 87
185 141 103 135 312 231 222 213 242 204 260 275 267 302 352 58 88 85 90 102 42 53 103 106 148 89 164 171 192 216 187 176 171 159 159 157 160 159 158 161 159 157 159 164 164 165 169 172 176 175 175 174 172 172 173 172 170 172 173 173 170 170 172 170 169 165 160 155 152 153 149 145 145 148 151 152 152 152 153 151 138 130 128 128 127 127 135 142 145 146 144 141 130 116 99 83 85
171 94 78 116 234 233 224 209 204 203 264 267 280 324 34 19 46 75 342 142 116 48 59 118 281 340 177 179 198 180 164 163 162 157 156 151 149 148 153 158 157 158 163 167 166 168 170 172 175 174 175 175 175 176 175 175 174 176 178 176 173 173 174 174 172 166 160 156 154 155 154 150 147 149 153 160 162 157 160 156 137 130 130 130 130 130 136 145 148 148 147 143 131 119 103 87 86
109 91 86 155 206 211 213 210 184 172 266 272 312 349 78 4 5 83 356 68 106 76 42 48 333 352 165 162 128 142 148 155 154 152 147 139 139 139 147 155 156 160 165 169 168 169 171 171 174 175 176 177 179 178 177 177 177 179 180 177 175 175 175 175 170 164 161 160 162 162 162 160 155 155 156 165 172 165 167 162 142 134 132 134 134 132 137 146 151 151 150 146 136 125 107 92 87
119 128 145 190 202 213 197 204 213 159 273 290 318 342 79 39 343 65 37 37 64 66 42 34 25 37 73 100 124 133 142 149 149 147 139 132 136 139 150 158 161 163 166 169 169 169 171 171 174 176 176 179 180 179 178 179 180 182 182 179 177 174 172 172 167 165 165 163 165 168 170 170 165 162 158 165 176 173 172 166 150 141 138 138 138 137 138 145 152 154 154 150 142 128 109 98 86
171 143 144 210 206 219 214 220 256 248 261 295 304 307 38 95 193 75 82 11 23 76 41 26 57 64 73 100 120 130 141 147 150 148 140 138 147 160 168 169 168 166 165 166 170 171 171 172 175 178 178 179 181 180 180 181 183 185 183 181 178 175 173 172 169 169 169 166 168 171 174 175 173 171 165 167 175 177 178 169 155 147 144 143 142 143 142 144 149 155 157 153 145 128 110 102 86
186 142 178 234 209 235 258 249 265 267 268 304 295 305 9 134 162 83 121 115 19 129 151 90 103 119 118 118 122 132 144 146 150 148 147 157 170 177 175 173 168 166 167 165 168 171 172 174 175 179 180 179 182 183 183 183 185 187 185 183 182 180 177 176 175 174 175 175 174 174 176 178 176 174 170 173 176 180 183 178 165 153 150 150 148 149 148 146 147 153 157 156 149 130 112 105 91
177 165 199 235 193 234 260 244 264 279 285 286 262 321 356 323 87 102 129 104 330 245 218 189 159 153 141 140 136 140 147 145 149 151 159 174 180 177 169 166 166 169 169 166 167 169 172 176 177 180 182 182 185 186 185 186 187 188 186 185 186 185 183 180 181 183 181 182 180 177 179 180 178 173 172 177 180 184 187 188 182 167 157 156 155 154 153 151 147 151 155 157 155 138 114 105 101
193 224 208 221 195 242 253 227 263 280 296 294 259 330 324 335 80 133 139 134 226 225 221 199 159 157 153 149 144 143 146 146 155 164 175 183 177 170 170 167 164 170 170 167 167 168 175 180 181 181 184 188 190 190 187 188 188 189 188 189 189 189 189 186 187 189 185 185 184 181 180 178 178 181 183 184 186 189 192 195 195 181 166 162 161 160 158 156 151 151 155 160 162 150 125 112 113
213 269 235 218 211 241 260 223 259 268 280 279 255 207 271 12 13 170 150 179 233 220 187 163 155 159 152 145 146 149 153 159 172 181 185 182 171 169 177 176 170 170 169 169 170 172 179 183 185 186 188 192 193 192 188 188 189 191 191 192 193 191 192 191 191 192 189 189 188 186 183 178 180 192 197 194 193 195 198 202 204 196 182 172 167 165 165 161 155 154 156 162 167 161 140 124 122
179 262 274 251 228 236 257 248 255 264 247 259 269 250 266 337 302 194 162 234 248 198 137 134 145 148 140 140 148 154 159 170 181 189 191 183 175 174 177 179 175 169 164 167 173 176 182 186 190 190 192 195 195 194 191 189 191 194 194 194 195 193 194 196 195 192 191 193 193 190 186 183 188 197 202 202 200 199 200 204 209 207 196 186 177 172 172 165 159 158 158 164 171 170 156 139 125
191 235 263 266 251 244 257 255 256 265 253 261 280 266 242 236 292 296 242 243 161 119 116 123 132 134 139 147 152 157 164 175 183 191 197 189 179 175 175 174 170 167 164 167 174 180 185 189 193 195 197 199 198 197 194 192 192 195 196 195 195 193 195 201 199 194 195 197 196 192 190 192 196 199 203 203 202 201 200 205 208 204 197 192 187 180 177 171 164 162 163 168 174 175 169 157 140
210 217 247 261 266 258 257 258 247 249 244 226 238 261 262 245 134 300 269 161 118 112 118 128 136 142 149 155 157 165 171 176 181 189 198 194 181 173 170 167 166 170 170 172 178 183 188 192 196 200 201 202 201 199 197 196 196 196 196 195 194 195 200 204 200 197 200 200 198 195 196 201 202 202 203 201 201 202 202 205 204 197 191 191 191 186 182 178 171 169 171 176 182 185 185 185 190
203 203 246 246 257 262 246 248 243 235 232 184 190 235 264 278 159 263 296 128 127 115 124 140 144 152 157 162 165 172 179 179 182 187 194 196 189 178 172 167 165 170 174 175 180 185 189 193 196 199 202 205 205 206 206 202 199 196 195 194 194 197 203 204 200 202 203 202 202 200 202 207 208 206 203 201 200 202 203 205 202 196 191 185 185 185 184 183 178 176 179 186 194 194 196 206 215
228 224 294 266 264 275 244 246 247 208 229 197 179 223 271 331 231 220 194 151 142 131 143 160 158 162 162 165 168 175 186 184 184 187 193 200 196 183 175 171 165 167 176 178 182 188 190 192 195 200 204 208 210 211 210 202 194 194 198 197 198 199 202 204 203 206 206 206 206 206 208 212 214 212 207 205 202 202 204 205 203 197 190 178 174 178 181 181 180 180 183 189 194 197 205 211 211
272 39 319 290 326 323 257 243 222 177 210 190 149 270 288 243 232 222 177 159 149 142 156 171 167 164 163 168 169 174 186 187 189 196 201 202 198 182 174 177 171 167 177 183 186 190 191 193 198 205 206 207 210 209 206 198 191 195 201 199 200 202 202 205 207 209 210 211 212 211 213 215 217 218 214 212 209 208 209 207 205 197 187 180 176 178 182 182 182 183 186 189 194 204 209 198 188
282 116 149 289 356 334 275 264 183 171 194 168 144 263 270 243 246 237 178 158 145 147 163 176 172 165 165 172 171 173 184 191 198 203 205 205 200 180 172 178 176 171 176 184 189 191 195 199 204 207 205 205 206 204 201 198 193 194 199 201 203 204 205 208 210 214 215 216 219 217 216 217 218 219 219 218 215 212 212 210 206 198 191 191 189 189 191 190 189 191 191 193 201 208 200 185 183
316 277 162 312 43 279 287 289 150 158 219 160 142 243 260 264 260 196 181 164 151 161 178 179 174 172 172 176 178 176 185 198 206 208 208 208 203 182 171 174 177 178 180 184 189 193 199 205 208 208 206 205 202 201 202 201 197 196 200 203 204 203 207 213 213 214 219 222 225 223 218 218 218 218 220 220 218 215 214 212 205 201 196 197 202 196 192 192 196 200 199 201 202 198 194 189 193
29 2 294 331 157 254 301 304 167 171 254 140 140 226 265 281 279 169 178 172 160 171 184 184 178 179 176 178 184 177 180 201 213 217 214 210 205 193 181 175 176 182 185 186 188 193 201 207 209 210 211 209 203 203 205 203 198 199 204 205 206 205 205 214 218 218 222 223 226 224 218 217 217 216 218 219 220 217 215 210 204 205 198 195 204 197 191 194 199 201 200 206 202 192 191 190 191
4 95 239 288 199 276 314 320 266 193 190 356 178 215 270 285 319 140 173 174 171 178 185 188 183 183 179 177 186 175 169 192 214 222 215 207 205 200 192 186 184 187 189 190 189 192 200 205 210 215 216 212 206 205 206 207 204 204 207 207 208 208 205 213 221 223 224 221 222 223 219 217 216 215 217 219 220 220 218 213 208 205 195 194 199 195 193 191 191 197 196 200 202 190 182 177 173
324 16 239 260 227 275 301 311 321 16 146 243 210 212 253 254 159 100 170 183 179 188 192 191 183 182 177 169 185 183 173 183 206 221 212 199 199 198 194 193 190 190 193 193 193 195 198 203 209 216 216 211 208 209 210 211 210 206 208 210 210 209 210 215 221 224 224 222 221 221 220 218 215 214 215 217 218 222 223 219 215 201 190 196 200 193 192 188 189 199 191 185 192 190 181 172 165
198 333 50 310 315 303 266 276 298 357 294 226 176 225 256 261 250 130 180 202 193 197 194 186 182 179 174 173 187 189 181 185 203 219 213 194 190 193 191 190 188 190 193 194 195 195 195 199 206 212 213 209 207 210 211 209 205 203 207 211 211 211 213 216 221 224 223 222 221 221 222 219 215 214 215 216 217 221 223 221 216 197 189 199 203 195 192 193 194 195 183 174 178 184 182 173 162
160 162 130 281 316 293 267 259 260 290 296 253 197 223 251 265 270 227 240 228 199 197 173 168 181 180 185 186 185 185 188 194 203 217 217 197 187 189 187 185 185 189 192 192 192 192 194 198 202 206 209 209 206 205 207 204 199 201 204 206 209 214 215 215 218 221 221 220 219 220 222 218 214 214 215 216 216 220 223 221 213 195 190 200 207 200 192 193 192 186 179 174 170 169 170 167 161
146 117 86 274 293 292 281 270 283 291 269 267 221 215 250 260 268 289 329 202 171 165 151 178 192 195 201 188 179 186 192 198 195 210 217 201 182 180 179 179 180 185 189 189 188 190 196 199 199 199 202 208 208 205 204 201 199 198 198 200 208 214 215 212 213 216 219 219 218 219 219 215 212 213 215 215 216 219 221 219 213 199 193 199 209 208 198 192 185 179 175 173 173 166 160 161 162
107 130 287 297 272 267 273 267 301 294 184 270 241 186 246 254 272 311 12 127 176 174 172 189 203 207 210 188 183 182 182 190 178 192 210 188 161 163 171 175 179 184 186 185 185 188 193 197 199 200 204 208 213 213 206 200 200 200 199 202 208 212 212 210 211 214 217 217 217 217 216 212 211 213 214 214 215 217 219 219 217 207 196 194 205 211 207 200 187 182 176 174 177 170 161 161 163
107 120 146 290 266 278 291 284 305 306 175 264 233 169 239 271 307 344 21 296 243 205 185 189 197 202 210 204 193 170 168 173 139 126 146 153 152 160 169 176 184 187 183 180 184 188 192 197 200 203 208 210 213 216 209 201 202 203 202 204 206 208 209 210 212 212 214 216 216 215 214 212 212 213 213 213 214 215 218 221 218 210 199 195 203 206 205 200 192 190 186 180 176 166 161 163 167
134 154 147 244 263 287 296 292 316 334 237 244 154 154 271 329 9 18 3 322 316 311 259 229 209 209 221 219 115 96 124 118 112 128 142 152 158 164 172 179 185 186 177 174 186 194 197 201 203 207 212 215 215 214 208 203 201 201 201 205 208 208 209 212 214 214 215 217 216 216 215 213 213 214 213 213 215 215 218 220 214 208 202 200 203 202 198 197 193 193 191 187 178 166 161 166 171
235 199 173 192 242 220 225 281 324 335 339 30 90 59 321 349 33 24 349 351 12 3 348 351 335 316 345 33 62 74 90 109 137 149 147 155 162 168 175 181 183 181 172 179 195 200 200 205 208 209 214 220 219 211 205 204 201 197 198 201 204 205 206 209 210 212 217 218 216 215 214 213 214 215 215 215 217 217 215 212 210 209 206 202 203 205 202 196 194 195 194 193 187 177 170 170 172
282 232 190 188 218 232 256 312 353 15 359 4 76 70 301 327 30 20 349 6 16 11 18 13 342 339 14 62 85 89 98 123 145 143 148 152 154 164 173 179 183 184 181 190 202 203 201 208 208 205 210 216 215 207 207 213 208 200 198 197 196 197 197 202 204 207 213 215 215 215 215 214 215 217 218 217 217 217 212 209 210 211 209 203 203 209 207 198 196 199 200 198 194 188 179 173 174
270 235 181 179 206 218 243 294 50 72 316 334 73 114 238 325 9 2 346 5 21 24 25 20 7 3 29 83 107 115 121 131 134 138 148 145 150 157 160 178 189 189 189 198 206 204 203 209 208 203 206 209 209 206 206 214 219 211 207 207 207 205 202 204 207 209 212 214 214 215 217 216 217 218 219 217 216 216 214 212 212 210 210 208 203 205 206 202 201 202 202 202 198 194 188 179 178
237 238 153 154 187 190 189 152 104 189 237 330 11 110 127 335 324 337 345 359 29 36 31 24 24 24 35 54 58 78 107 125 134 142 146 145 154 154 160 185 194 188 191 202 204 203 204 209 208 207 208 210 211 209 208 212 219 220 218 217 217 214 210 208 207 207 211 214 214 214 215 214 215 216 217 217 216 217 218 218 216 211 211 211 204 205 207 205 205 202 201 205 203 200 199 192 185
243 235 148 155 178 170 168 128 103 303 55 331 314 35 102 290 287 334 5 30 35 38 37 27 27 29 36 45 46 44 45 52 91 126 137 145 153 160 175 190 193 187 193 201 202 202 205 209 207 206 209 212 214 213 210 212 217 222 222 220 219 216 211 208 205 205 209 213 215 214 212 211 212 213 216 218 218 220 222 221 219 213 211 210 206 208 209 207 206 203 200 204 206 205 206 203 196
247 224 130 98 92 114 118 107 112 49 55 235 269 310 120 256 299 348 8 22 22 26 37 35 33 37 37 40 44 46 45 41 46 63 72 117 153 168 186 193 185 180 187 192 198 203 206 209 208 205 209 212 214 214 212 213 215 219 222 221 218 213 206 202 200 202 207 212 216 216 213 211 212 213 215 217 219 222 222 219 217 213 210 210 209 209 210 209 207 204 201 202 206 207 206 207 208
195 169 127 69 37 46 54 66 97 83 12 247 253 202 117 217 296 358 359 340 354 12 36 39 36 39 37 36 37 39 44 45 45 51 50 61 148 178 197 202 171 114 84 116 186 210 211 213 216 213 215 218 219 216 213 215 217 220 224 223 219 212 203 197 196 200 206 212 217 220 219 214 212 212 213 215 216 217 216 214 213 213 209 207 209 210 209 210 208 204 203 203 206 209 208 209 214
104 113 134 125 337 19 31 356 51 102 246 261 248 127 100 154 265 351 338 346 26 30 33 37 40 42 38 36 35 33 34 34 35 37 36 38 36 218 229 250 23 34 24 28 10 289 250 236 236 233 230 230 233 229 219 218 221 224 227 227 222 214 205 199 199 202 208 212 217 221 221 217 213 212 213 213 212 209 209 210 210 209 207 205 206 206 204 206 208 205 205 204 205 208 211 213 216
125 107 99 119 203 24 45 297 42 150 245 255 222 111 79 162 251 356 330 3 31 34 33 35 47 56 53 48 42 36 33 29 28 26 21 25 13 360 349 350 22 37 29 22 8 345 319 281 261 254 250 245 252 255 237 226 224 225 227 228 222 211 204 209 212 210 211 214 218 222 224 220 213 212 213 211 209 206 205 206 207 205 204 202 199 198 197 200 204 204 203 203 203 205 209 215 217
168 152 125 131 127 100 198 266 147 201 251 242 228 104 75 244 265 5 4 20 32 46 46 40 53 64 64 61 56 51 45 32 25 26 22 22 16 7 3 6 21 36 38 33 13 355 342 316 288 273 267 261 264 272 266 250 233 223 226 229 221 215 219 226 223 214 211 212 215 221 228 227 219 215 212 206 204 206 207 206 205 202 199 196 194 195 196 198 201 202 203 203 202 204 208 214 215
177 165 133 141 148 140 192 207 164 196 238 273 297 58 143 190 187 40 49 39 40 62 63 60 62 62 64 63 60 60 56 45 33 29 24 19 16 13 10 12 13 14 22 27 4 350 346 332 311 293 287 285 282 282 279 271 237 201 215 237 234 230 229 228 221 213 215 217 213 212 217 225 226 222 215 209 207 208 208 206 202 197 193 190 191 193 196 200 202 202 204 205 204 205 209 212 214
213 140 105 137 178 144 134 181 172 173 158 0 351 62 23 156 122 82 92 89 68 73 72 67 60 53 54 53 49 50 48 44 39 32 28 22 18 17 15 14 13 9 12 10 345 336 336 331 319 304 304 309 308 303 283 264 200 202 240 247 240 228 223 224 223 221 223 224 219 214 210 212 219 220 215 214 218 215 206 199 196 191 189 190 191 195 198 197 198 200 203 205 204 206 208 213 217
157 115 147 193 168 125 116 195 203 112 129 212 299 123 83 119 126 115 124 110 95 91 74 63 57 49 51 49 44 43 40 39 37 32 30 26 25 24 19 16 15 14 15 12 356 337 333 334 326 309 301 302 316 323 291 249 233 241 247 248 242 228 222 227 228 227 225 221 221 219 211 207 213 216 209 205 216 222 206 191 189 187 188 193 194 197 200 196 195 201 203 204 205 207 210 213 218
120 163 190 155 86 94 108 148 11 53 134 243 319 136 164 178 158 157 141 120 114 108 78 64 57 51 53 49 42 36 32 33 29 27 27 24 25 25 21 20 21 22 20 18 14 358 342 337 332 318 304 296 302 309 295 268 249 246 246 244 237 227 227 231 231 230 227 219 216 213 207 207 210 209 202 193 199 217 212 188 183 187 189 194 197 197 199 198 199 203 204 207 207 208 211 212 216
124 167 164 110 117 173 93 136 137 105 156 253 355 59 184 177 170 168 152 132 121 104 72 63 58 50 47 40 33 25 23 23 17 16 17 15 19 20 19 20 21 22 20 17 20 14 359 351 345 334 320 304 286 284 287 275 248 247 252 247 237 225 225 230 231 230 229 222 213 206 203 204 203 199 197 189 187 207 218 198 183 186 188 191 196 197 199 201 202 204 205 206 207 208 211 210 211
66 98 88 84 138 160 157 150 150 148 171 188 50 6 242 209 215 179 151 135 124 112 89 72 59 49 41 34 29 21 18 16 10 10 6 4 9 12 17 20 19 18 16 16 17 13 6 3 0 355 339 320 291 275 281 277 253 246 250 252 247 235 226 227 227 225 226 221 209 202 201 201 198 195 194 189 184 199 218 206 188 187 187 186 190 193 197 202 204 206 207 204 203 204 205 207 208
113 100 121 218 95 120 152 123 114 135 151 160 133 238 262 246 249 187 150 134 126 124 112 88 63 54 45 35 31 21 13 11 8 7 3 359 359 1 10 18 20 19 17 15 12 7 5 4 2 359 347 328 302 276 268 267 252 236 235 241 243 238 231 225 220 219 221 216 207 203 200 196 195 195 192 189 184 191 208 206 194 191 189 185 186 188 191 197 199 203 205 203 201 202 202 205 208
146 149 165 171 138 121 130 197 286 110 116 158 156 178 266 264 206 116 119 114 111 111 110 98 68 58 49 36 31 23 14 8 2 2 3 359 355 355 2 13 20 22 17 12 7 2 360 358 356 352 340 326 312 289 269 263 251 234 232 236 236 237 234 223 216 218 218 213 207 202 196 190 190 191 189 187 182 185 200 204 198 195 191 188 191 191 190 192 193 197 199 199 199 199 203 205 208
Height
775 776 776 776 776 776 778 778 790 795 799 809 807 801 786 775 774 770 766 760 758 755 752 750 747 747 752 762 768 769 770 770 769 776 775 762 757 760 761 761 763 763 765 767 769 772 774 777 778 780 782 783 785 786 787 788 789 789 790 790 791 792 793 794 795 796 796 797 798 798 800 801 802 803 805 806 808 809 810 811 812 812 813 814 815 816 817 818 818 819 820 820 821 821 821 821 822
775 776 775 776 775 777 782 781 796 805 805 809 802 796 781 773 775 770 766 761 759 755 750 750 749 752 755 758 760 763 768 768 763 763 760 757 759 760 759 761 762 763 765 767 769 772 775 777 778 780 782 785 786 788 789 790 790 790 791 792 792 793 794 795 795 796 796 797 798 799 800 801 803 804 805 807 808 810 811 812 813 814 815 815 816 817 818 819 820 820 821 821 822 822 822 823 823
775 776 776 776 776 777 783 785 799 811 811 807 795 788 779 774 771 764 759 756 754 750 748 748 750 755 757 761 761 765 771 768 761 760 759 759 758 757 760 762 763 765 766 768 771 772 775 777 778 780 781 784 785 787 789 790 791 791 792 793 793 794 795 795 796 797 797 798 799 800 801 802 803 804 806 807 808 810 811 813 814 815 816 816 817 818 819 820 821 821 822 823 823 823 823 824 824
775 776 776 776 779 781 787 792 801 808 810 809 793 779 776 773 765 759 754 753 753 748 747 749 755 755 755 765 765 767 773 768 762 759 758 757 756 757 761 764 765 767 768 770 771 773 775 777 779 781 782 783 784 786 788 790 791 792 793 794 794 795 796 796 797 798 799 800 801 802 803 804 805 805 806 807 809 810 811 813 815 816 816 817 817 818 819 821 822 822 823 824 824 824 825 825 825
776 776 777 776 782 784 788 797 804 806 802 801 790 772 771 769 762 759 753 753 753 749 749 751 759 758 755 763 765 769 771 767 762 757 756 757 757 759 761 764 766 768 770 771 773 775 776 778 781 782 783 784 785 787 789 791 792 793 794 795 796 796 797 798 799 799 801 802 803 803 804 805 806 807 807 808 809 810 811 813 815 816 817 817 818 819 820 821 822 823 824 824 825 825 826 826 827
776 776 777 776 781 782 791 801 804 805 793 790 787 771 767 764 762 761 753 752 750 749 750 750 757 759 762 764 762 765 763 762 760 757 757 758 759 760 762 765 767 769 771 772 774 776 778 780 782 784 785 786 787 788 790 791 793 794 795 796 797 798 798 799 800 801 802 803 804 805 806 807 808 808 809 809 810 810 811 813 815 816 817 818 818 819 820 822 822 823 824 825 826 826 827 828 828
776 777 779 780 784 785 797 803 801 801 787 782 782 769 764 761 762 761 757 756 751 750 752 752 752 757 768 766 764 763 757 759 758 757 758 759 760 762 765 766 768 771 773 775 776 778 780 782 783 785 787 788 789 790 791 792 794 795 796 797 798 799 799 800 801 802 803 804 806 806 807 808 809 810 810 811 811 811 812 813 815 817 818 818 819 820 821 822 823 824 825 826 827 828 828 829 828
776 778 781 785 791 793 800 802 799 797 784 776 774 767 763 759 760 762 761 760 757 755 755 755 751 760 770 765 767 764 757 759 758 758 759 760 762 764 767 768 770 772 775 776 777 780 782 784 785 787 788 790 791 791 792 793 795 796 797 798 799 800 801 802 802 803 805 806 807 808 808 809 810 810 811 812 812 813 813 814 815 817 818 819 820 820 821 823 824 825 826 827 828 829 829 829 829
776 779 783 787 794 798 802 801 796 791 782 775 771 765 761 757 758 761 761 760 758 757 758 756 752 761 769 768 770 764 759 761 759 759 760 762 764 766 769 769 771 773 776 777 778 781 783 785 786 788 790 791 792 793 793 794 796 797 798 799 800 801 802 803 803 805 806 807 808 809 809 810 811 811 812 813 814 814 815 815 816 818 819 820 821 821 822 823 824 825 826 828 829 830 830 830 830
777 780 784 789 796 802 803 800 794 787 779 772 769 764 759 756 756 758 760 760 757 758 759 754 754 762 768 772 772 764 763 763 761 761 762 765 766 768 770 770 772 773 776 777 779 781 783 786 787 789 790 792 793 794 794 795 797 798 799 800 801 802 803 804 804 806 807 808 809 810 811 811 812 812 813 814 815 816 816 817 817 818 819 820 821 822 823 824 825 826 827 828 829 830 830 830 830
781 782 783 792 800 803 802 798 793 785 776 771 767 759 755 754 756 757 757 759 756 759 759 755 762 767 769 773 770 764 763 764 763 763 764 767 769 769 770 771 773 775 776 777 779 781 784 786 788 790 790 792 793 794 795 796 798 799 800 801 802 803 804 805 806 807 808 809 810 811 812 813 814 814 814 815 816 817 818 818 818 819 820 821 822 823 823 824 825 826 828 829 830 831 831 831 830
784 784 784 795 801 800 799 797 791 783 776 772 766 754 750 750 755 756 756 758 757 760 758 755 763 765 772 776 768 764 763 766 765 765 767 768 770 771 772 773 774 776 777 778 780 782 784 787 788 790 791 792 793 795 796 797 799 800 801 801 803 804 805 806 807 808 809 811 811 812 813 814 815 815 816 817 817 819 820 820 820 820 820 821 822 823 824 824 826 827 828 830 831 831 831 831 831
783 785 786 794 797 795 796 795 788 785 779 770 762 750 747 749 752 752 752 755 757 761 756 751 756 760 773 776 767 766 765 766 766 767 768 769 771 771 773 774 775 777 778 780 781 782 784 787 789 791 792 793 795 796 797 799 800 801 802 803 804 805 806 808 809 810 811 812 813 814 815 815 816 817 818 818 819 820 821 821 821 821 821 822 823 824 825 825 826 827 829 831 831 832 831 831 831
780 782 784 791 795 793 791 790 786 787 780 764 757 749 746 748 748 747 749 757 760 758 753 749 751 760 772 775 772 768 764 766 767 768 769 769 771 772 774 776 777 777 779 781 781 783 785 787 789 791 793 794 796 797 799 800 801 802 803 804 805 806 808 809 810 811 813 814 815 816 816 817 818 818 819 820 821 821 822 823 822 822 822 823 823 824 825 826 827 828 830 831 832 832 832 831 832
777 779 782 789 794 792 789 788 784 786 778 761 756 749 747 747 745 747 748 757 761 753 750 750 751 759 767 771 771 764 761 765 767 768 769 770 771 773 775 777 778 778 780 781 782 784 785 787 789 792 794 795 797 799 800 801 802 803 804 805 806 808 809 810 811 813 814 816 817 817 818 819 819 820 821 822 822 823 824 824 824 824 824 824 824 825 826 827 828 829 831 832 833 833 833 832 833
774 777 784 790 794 794 789 785 783 785 776 760 754 748 750 749 745 750 748 750 757 753 753 756 753 756 760 761 760 756 760 765 767 769 769 770 772 775 777 778 780 780 781 782 783 785 786 789 790 793 795 797 799 800 801 802 803 804 805 807 807 809 810 811 812 814 816 817 818 819 819 820 820 820 822 823 824 824 825 826 826 826 825 825 825 825 826 827 828 830 832 833 834 834 834 834 834
773 778 788 793 794 793 787 782 780 779 771 758 753 750 752 753 748 749 747 746 755 757 758 760 756 754 756 757 755 756 762 765 768 770 770 772 774 776 778 779 780 780 782 782 784 786 788 790 792 794 796 797 799 801 802 803 805 806 807 808 809 810 811 813 814 815 817 818 818 819 820 820 820 820 821 823 825 826 826 827 827 827 827 826 826 826 827 828 829 831 832 834 835 835 835 835 835
776 783 791 794 793 789 780 775 771 770 767 760 756 753 753 756 753 750 751 755 758 760 761 761 759 756 756 757 756 758 763 766 768 770 772 774 775 777 778 778 779 780 782 783 785 787 789 791 792 794 796 797 799 801 803 804 805 806 808 809 810 812 813 814 815 817 817 818 819 819 820 820 820 821 821 823 825 827 828 828 829 828 828 828 828 828 828 829 830 831 833 834 835 836 836 836 836
776 783 789 790 786 780 771 768 765 765 766 761 758 755 753 755 754 751 757 764 761 761 765 765 764 762 761 760 759 761 765 767 769 770 772 775 776 776 776 777 778 780 782 784 786 787 789 790 792 794 795 797 799 801 803 804 806 807 808 810 811 813 814 815 816 817 817 818 818 819 820 820 821 821 822 823 825 828 829 829 830 830 829 829 829 829 829 830 831 832 833 835 836 837 837 837 838
774 779 786 783 778 774 767 765 762 760 762 761 760 753 751 752 751 752 760 766 764 763 764 765 768 767 764 763 762 764 766 768 769 771 772 774 774 774 775 777 779 781 783 784 786 788 790 791 792 794 795 797 799 800 802 803 805 807 809 810 812 813 814 815 816 817 817 817 818 819 820 821 821 822 823 824 826 828 829 830 830 831 830 830 830 830 830 831 832 833 834 835 836 837 837 838 838
773 775 780 775 773 773 764 761 759 757 757 759 759 754 752 750 749 754 760 766 768 765 759 756 762 764 764 764 763 765 767 769 771 772 772 771 772 774 777 779 781 782 783 785 787 789 791 792 793 794 796 797 798 799 800 802 804 806 809 810 812 813 814 815 816 816 817 818 819 820 821 822 823 823 824 824 826 828 829 830 831 831 831 831 831 831 831 832 832 834 834 835 836 837 838 838 839
773 772 772 770 771 771 761 759 759 755 755 757 758 755 751 749 751 755 758 762 763 758 753 751 756 759 760 762 764 767 768 770 771 771 770 770 772 776 778 780 782 783 785 786 788 790 791 792 793 795 796 797 797 798 800 802 804 806 808 810 811 812 814 815 816 817 817 818 819 820 821 822 824 825 825 825 826 828 829 830 831 832 832 832 831 832 832 832 833 834 835 836 836 837 838 839 839
774 772 768 767 768 767 760 759 758 754 756 757 756 752 750 751 754 755 755 755 752 748 747 750 754 756 756 759 763 766 768 770 769 768 767 769 772 775 777 779 781 782 784 786 788 790 790 792 793 794 795 796 797 799 801 803 805 806 808 809 811 812 814 815 816 817 818 819 820 820 821 822 824 825 826 826 827 828 829 830 831 832 832 832 832 832 833 833 834 834 835 836 837 837 838 839 839
773 772 766 765 765 764 760 759 757 755 757 757 753 751 751 752 753 754 753 751 748 746 747 750 755 757 759 761 764 766 767 768 768 768 768 770 772 774 776 779 781 783 785 787 788 789 790 792 793 794 796 797 798 799 801 803 805 806 808 810 812 813 815 815 816 817 818 819 820 821 821 822 823 824 825 826 827 828 829 830 831 832 833 833 833 833 833 833 834 835 836 837 837 838 838 839 840
771 770 766 763 763 760 758 758 759 757 757 756 754 753 752 751 752 752 751 750 748 748 749 753 757 760 763 764 766 767 767 768 768 769 770 772 774 775 778 780 782 784 785 786 788 789 790 791 793 795 796 797 798 800 802 803 805 806 809 811 812 814 815 816 816 817 818 818 819 820 821 822 822 823 825 826 827 827 828 829 830 832 833 833 833 834 834 834 835 835 836 837 838 838 838 839 840
767 765 764 762 761 758 757 758 758 758 756 755 757 757 752 751 754 753 751 751 750 750 753 756 759 763 765 766 767 767 766 767 767 768 770 772 774 776 778 780 782 784 785 786 787 788 789 791 793 795 797 799 800 802 804 805 806 808 809 812 814 815 816 816 816 816 817 818 819 820 821 822 822 823 824 825 826 827 828 829 830 832 833 833 834 834 834 835 835 836 836 837 838 839 839 839 840
762 762 762 761 760 757 757 757 756 756 755 754 757 758 753 752 756 758 755 753 751 753 758 759 761 764 766 767 768 767 767 766 766 767 769 771 773 775 777 780 782 784 785 786 787 788 789 791 793 796 798 800 802 803 803 805 807 810 812 813 814 815 815 815 816 816 817 817 818 820 821 822 823 823 824 825 826 827 828 829 830 831 832 833 833 834 835 835 836 836 837 838 839 840 840 840 840
759 761 762 759 759 758 756 756 755 755 754 752 753 756 755 756 758 757 755 753 751 755 760 761 763 765 766 767 768 768 768 767 767 767 767 768 770 773 776 778 780 783 785 786 787 788 789 791 793 795 796 797 800 801 802 804 807 810 812 813 813 814 815 815 815 816 816 817 818 819 821 822 823 824 824 825 826 827 828 829 830 831 832 833 833 834 835 835 835 836 837 838 839 840 840 839 839
758 759 763 761 758 758 755 754 753 753 753 748 752 761 761 759 756 752 753 753 752 756 760 762 764 765 766 768 769 769 769 769 768 766 765 765 768 773 776 777 779 781 784 785 787 788 789 790 791 792 793 795 797 799 800 803 805 806 809 810 812 814 814 814 815 816 817 818 819 820 821 821 823 824 824 825 826 827 828 829 830 831 832 832 833 833 834 835 835 836 836 837 839 839 839 839 839
758 760 764 764 764 762 755 753 753 752 752 746 753 770 767 757 754 752 753 753 755 760 761 763 764 765 767 767 769 769 769 769 767 765 764 765 768 772 775 777 779 781 783 785 786 788 789 789 789 791 793 794 796 798 799 801 803 804 806 808 809 812 813 813 815 817 818 819 819 820 820 821 822 823 824 826 826 827 828 829 830 831 832 833 833 833 834 834 835 835 836 837 838 839 839 839 840
760 762 766 770 773 768 755 753 753 753 753 745 752 772 767 753 752 754 754 752 756 761 762 762 764 765 766 767 768 769 769 768 767 766 766 766 769 773 775 776 778 780 782 784 786 786 787 787 789 790 792 793 794 795 796 798 800 801 804 805 806 809 811 812 814 817 818 819 819 819 820 821 821 823 824 825 826 827 828 828 829 831 832 833 833 833 833 834 835 835 836 837 837 838 839 840 840
764 769 774 776 775 769 757 752 753 754 753 748 754 770 765 753 751 751 752 753 754 759 761 761 763 764 766 767 767 769 769 769 769 769 769 769 771 773 774 776 778 780 781 783 785 785 786 787 788 790 790 790 792 793 795 797 799 800 802 803 805 808 809 811 813 815 816 817 818 819 819 820 821 822 824 825 826 827 827 828 828 830 832 833 832 832 832 833 834 835 835 836 837 837 838 839 840
772 775 778 776 773 771 763 754 752 752 752 752 756 765 762 753 752 751 751 753 755 758 760 760 762 763 764 766 767 769 770 771 771 769 769 769 770 771 773 775 777 779 780 782 783 784 785 786 787 788 787 789 792 794 796 798 799 800 801 802 805 807 808 810 812 813 814 815 816 818 818 819 820 821 822 824 825 826 826 826 827 829 831 831 831 831 832 833 834 834 835 836 836 837 838 839 840
779 777 776 776 774 774 770 760 754 752 755 756 756 760 758 750 752 755 753 754 755 757 758 758 760 762 764 766 767 768 770 771 770 767 767 768 769 770 772 774 776 778 780 781 782 783 784 785 785 785 786 789 792 793 795 797 798 799 801 802 803 805 807 808 810 810 812 813 814 816 817 818 819 820 821 822 824 825 825 825 826 827 829 830 830 831 832 833 833 833 834 834 835 836 837 838 840
781 779 776 777 776 774 774 767 757 753 757 759 760 761 756 749 751 756 755 753 754 753 754 756 758 761 763 765 766 767 769 770 769 765 766 768 768 770 772 774 776 777 779 781 782 783 783 784 784 784 786 788 790 792 793 795 797 799 800 802 803 804 806 807 808 808 810 811 812 814 815 816 817 818 820 821 823 824 824 824 824 826 827 828 829 831 832 832 832 833 833 833 834 836 837 838 839
777 778 778 779 778 775 772 767 757 754 758 759 762 762 755 751 750 753 754 754 755 754 755 757 759 761 762 764 765 766 768 768 767 765 766 768 769 770 772 774 775 777 778 780 781 782 783 783 784 785 786 787 789 790 792 794 796 798 799 800 802 802 803 804 805 806 808 809 810 812 813 815 816 817 818 819 821 822 822 822 823 825 826 827 828 830 831 831 831 831 831 832 833 835 837 838 838
774 777 778 778 780 778 769 764 756 754 760 758 757 762 757 753 751 750 753 755 756 757 758 760 760 760 760 762 765 765 766 766 766 766 767 769 770 771 773 774 776 777 778 780 781 781 782 783 784 785 786 787 787 787 789 791 793 795 796 797 798 799 800 802 803 804 806 807 809 810 812 813 815 816 817 818 819 820 820 820 821 823 824 826 827 829 830 830 830 830 831 832 833 834 836 837 838
774 776 778 778 782 778 766 763 758 756 764 758 755 763 759 753 751 751 756 759 758 756 757 759 759 759 759 761 763 764 765 765 766 768 770 772 773 773 774 774 775 776 778 780 781 781 782 783 783 784 785 785 785 785 786 787 789 791 793 794 795 797 798 800 801 802 804 806 808 810 811 813 814 815 816 817 818 819 819 819 819 821 823 825 827 828 829 829 829 829 830 831 833 833 834 836 837
775 777 780 781 779 775 765 761 758 758 763 758 755 762 759 755 755 755 760 761 758 754 753 754 755 757 759 759 761 763 765 766 768 771 772 772 772 773 774 774 774 776 778 780 781 781 782 782 783 783 784 784 784 784 785 786 789 791 793 794 796 798 799 801 802 803 804 806 807 809 811 812 813 814 815 816 817 818 819 818 818 820 823 825 826 826 828 828 828 828 829 830 831 832 834 836 838
776 777 781 782 777 776 772 764 758 758 762 758 755 761 758 757 760 761 763 762 758 757 755 754 755 757 758 759 762 766 768 770 773 773 772 771 771 772 773 774 775 777 779 781 781 781 782 783 783 784 785 786 786 787 788 789 790 792 794 796 798 799 800 802 803 804 805 806 807 809 810 812 812 813 814 815 816 817 818 818 819 820 822 824 825 825 826 827 827 827 828 829 829 831 834 836 838
776 774 777 780 774 774 774 768 762 758 761 759 757 766 764 760 767 771 769 767 764 762 759 759 760 759 760 763 765 768 771 773 774 772 771 771 771 772 774 775 777 779 781 781 780 779 780 782 783 785 786 787 789 791 793 793 793 793 794 796 798 799 800 802 802 804 805 806 807 808 810 811 812 812 813 814 815 816 817 818 819 820 821 824 825 825 825 825 826 827 827 828 828 830 832 835 837
775 769 770 773 770 771 771 771 770 766 767 764 763 777 778 770 774 778 775 775 775 772 768 768 767 764 764 767 768 769 771 772 772 771 771 771 772 774 776 778 779 781 781 780 779 778 780 781 782 783 784 785 788 791 794 796 796 795 795 795 795 797 799 800 801 803 804 805 807 808 809 810 811 812 812 813 814 815 816 817 818 819 820 823 825 824 824 824 825 826 827 828 829 830 831 833 835
776 765 761 766 767 771 772 771 772 774 776 770 768 778 782 776 775 778 779 782 784 780 777 777 774 770 767 768 770 769 770 770 770 771 770 772 774 776 778 779 779 780 781 780 779 779 780 781 782 783 783 783 785 788 791 794 796 796 794 793 794 795 797 798 800 802 802 804 806 807 808 809 810 811 811 813 814 815 816 816 817 818 820 821 823 823 823 824 825 826 827 828 829 830 831 832 834
773 757 755 763 766 770 772 768 769 773 774 771 769 769 777 783 780 780 783 787 789 786 782 782 779 776 774 772 773 772 771 770 770 770 771 772 774 776 778 778 777 778 779 778 778 779 779 779 781 782 783 784 784 785 787 789 791 792 792 792 793 793 795 796 798 800 802 803 805 806 807 808 809 810 811 812 813 814 815 815 816 818 820 820 822 822 822 823 824 826 827 828 829 830 831 832 833
762 749 753 760 761 766 766 765 769 775 776 776 774 769 779 793 786 782 786 788 792 791 787 786 783 780 779 777 777 776 775 774 773 773 773 774 775 776 776 776 776 777 777 777 777 778 778 778 778 780 781 781 781 781 782 783 784 786 788 789 791 792 794 796 797 800 802 803 804 805 805 806 808 809 810 811 812 813 814 815 816 818 819 820 821 821 821 822 824 825 826 827 829 830 831 832 833
751 746 756 759 761 766 765 767 769 776 783 782 777 772 781 796 793 790 793 792 796 796 790 789 785 783 781 780 780 779 779 778 778 778 778 778 778 777 777 777 778 779 778 779 779 780 780 780 780 780 780 778 776 776 776 778 780 782 783 785 786 789 792 794 797 799 801 801 802 803 804 805 806 808 809 810 811 813 814 815 815 816 818 819 820 820 821 822 823 825 825 827 828 830 831 832 832
746 749 758 760 765 766 768 774 771 780 791 781 775 776 778 790 797 800 802 798 799 798 794 792 788 786 784 783 783 782 782 782 781 782 782 781 781 780 779 779 781 782 782 783 784 785 784 784 783 781 780 778 775 774 773 775 779 780 781 782 784 787 790 793 795 797 799 800 801 801 802 803 804 806 808 809 810 812 813 814 814 816 817 818 819 820 820 821 823 824 826 827 829 830 831 831 832
747 753 758 764 771 771 774 780 777 790 797 780 777 781 778 789 801 803 804 799 797 797 797 797 793 791 789 787 787 786 786 786 785 785 785 784 784 782 782 782 785 787 787 788 788 789 788 787 786 783 780 780 779 777 774 773 777 780 782 784 786 788 790 792 794 796 797 798 799 800 801 802 803 804 806 807 809 810 812 813 813 815 816 817 818 819 820 821 823 824 826 827 829 830 831 831 831
753 756 760 770 783 785 788 791 789 794 792 781 784 782 783 801 808 806 804 799 798 798 798 800 797 795 792 790 790 789 789 789 788 788 787 787 786 785 785 786 789 791 791 791 790 790 790 788 786 784 781 781 781 781 779 776 777 780 784 787 789 791 793 794 795 795 796 797 798 800 800 801 802 803 804 806 808 809 810 811 812 813 814 816 817 819 820 821 822 823 825 827 828 829 830 830 831
757 756 759 771 787 796 801 806 805 798 787 784 786 783 793 809 807 804 805 801 799 797 798 801 799 797 794 793 792 791 792 791 791 790 789 788 787 786 786 786 788 791 792 792 791 791 790 788 787 784 782 782 782 783 784 783 782 784 788 791 792 793 793 793 794 795 795 794 795 798 801 802 801 802 803 805 806 808 809 810 811 812 813 815 817 818 819 820 822 823 824 826 828 829 830 830 830
755 753 754 763 775 785 795 798 796 792 787 787 787 789 802 809 804 803 803 802 799 795 798 801 799 798 795 793 792 792 794 794 793 792 791 790 789 788 788 787 788 789 789 791 791 791 789 788 787 785 783 784 783 784 785 786 785 787 791 793 792 790 788 790 793 793 792 790 789 792 796 800 802 802 803 805 806 807 808 809 810 811 813 814 816 817 818 819 821 822 824 825 827 828 829 829 830
758 755 754 760 760 765 782 791 787 785 787 794 799 803 809 807 804 804 802 802 801 797 800 801 800 800 797 795 796 795 795 795 795 795 793 792 791 789 789 789 788 788 788 789 788 788 788 787 786 785 785 784 784 784 784 785 786 788 788 788 787 787 788 790 793 791 789 789 789 789 791 795 799 801 802 804 806 806 807 807 809 810 812 814 815 817 818 819 820 821 823 824 825 827 828 829 830
757 757 755 756 752 754 774 791 794 788 787 801 811 811 812 810 807 806 804 803 803 801 802 803 802 802 800 800 800 799 799 798 798 798 797 796 794 793 792 790 789 788 787 787 786 786 786 786 785 784 784 784 784 783 783 783 784 784 783 783 784 787 787 788 789 789 789 788 789 790 791 793 796 799 800 802 805 807 807 807 807 809 811 813 815 817 818 819 820 821 821 823 824 826 827 828 829
749 755 749 751 756 757 765 780 792 792 791 805 814 811 811 812 809 807 805 804 804 804 804 804 804 803 803 804 803 803 803 801 801 800 799 799 797 796 794 792 790 789 788 787 786 786 786 786 785 784 783 784 783 783 781 781 780 778 778 779 782 786 787 786 787 788 789 788 787 788 789 791 794 797 799 800 804 807 808 807 807 809 811 813 815 816 817 818 819 820 821 822 823 825 826 827 828
735 741 739 747 762 766 768 776 786 791 797 806 812 813 811 809 808 806 804 804 805 806 807 807 807 806 806 807 807 806 805 804 804 803 802 801 800 798 797 795 793 791 790 789 788 787 787 786 785 784 783 783 782 781 780 779 778 776 775 776 779 784 786 785 786 787 788 787 786 787 788 790 792 794 797 798 801 806 808 807 807 809 810 812 814 815 816 817 818 820 820 821 823 824 825 826 828
733 737 742 747 755 761 766 772 776 782 794 804 810 813 810 806 806 803 801 803 806 808 810 810 810 811 811 811 811 810 809 809 808 806 806 804 803 802 800 798 796 794 793 791 789 788 787 786 784 783 783 783 782 781 779 778 778 776 774 775 777 780 782 783 784 786 787 786 786 787 788 789 791 793 795 797 799 803 808 808 808 809 810 811 812 813 815 816 818 819 820 821 822 823 825 826 827
739 743 750 751 752 756 761 769 773 773 782 798 806 809 808 805 803 801 799 802 806 809 811 812 813 815 816 816 816 815 814 813 811 810 809 807 806 804 802 800 799 796 794 792 790 789 787 786 784 782 782 782 781 781 779 778 777 776 774 774 775 778 780 781 783 785 786 786 787 787 788 789 791 792 794 796 797 801 806 808 808 809 810 811 812 813 814 815 817 818 819 821 822 823 824 826 827
739 743 748 751 753 757 764 774 778 770 775 792 794 796 807 807 801 801 802 803 806 809 811 813 816 818 819 820 819 819 818 816 815 813 811 810 808 805 803 801 799 797 795 793 791 790 788 786 785 783 782 781 779 778 778 777 776 775 774 773 774 776 778 780 783 784 785 785 786 787 787 789 791 792 794 795 796 799 805 807 808 809 810 811 812 813 814 815 816 818 819 820 821 823 824 825 826